Location: Fort Worth, Tx
(32.7431°N, 97.3695°W)
Time: 21:56:14
(UTC-05:00)

Tiros 1 - Pass Details

Date: 07 October 2024
Orbit: 622 x 654 km, 48.4° (Epoch: 05 November)

Event Time Altitude Azimuth Distance (km) Brightness Sun altitude
Rises 13:59:24 0° 317° (NW) 2,906 10.2 51.1°
Reaches altitude 10° 14:02:26 10° 338° (NNW) 1,993 9.4 51.2°
Maximum altitude 14:05:30 17° 20° (NNE) 1,558 9.0 51.3°
Drops below altitude 10° 14:08:34 10° 62° (ENE) 1,985 9.6 51.3°
Sets 14:11:34 0° 82° (E) 2,889 10.5 51.3°
